Location: R�o Medio
(42.4667°N, 3.0167°W)
Time: 15:36:49
(UTC+00:00)

COSMOS 2487 - Pass Details

Date: 27 February 2020
Orbit: 442 x 445 km, 74.7° (Epoch: 07 April)

Event Time Altitude Azimuth Distance (km) Brightness Sun altitude
Rises 18:35:52 0° 346° (NNW) 2,445 6.3 -7.6°
Reaches altitude 10° 18:37:59 10° 351° (N) 1,570 5.2 -8.0°
Maximum altitude 18:41:21 50° 68° (ENE) 574 2.5 -8.6°
Drops below altitude 10° 18:44:41 10° 145° (SE) 1,557 4.8 -9.3°
Sets 18:46:48 0° 151° (SSE) 2,423 5.8 -9.7°
